TimeHST,TemperatureF,Dew PointF,Humidity,Sea Level PressureIn,VisibilityMPH,Wind Direction,Wind SpeedMPH,Gust SpeedMPH,PrecipitationIn,Events,Conditions,WindDirDegrees,DateUTC
12:53 AM,72.0,64.9,78,30.11,10.0,NE,20.7,29.9,0.00,,Overcast,50,2013-01-04 10:53:00
1:53 AM,72.0,63.0,73,30.10,10.0,NE,21.9,27.6,N/A,,Mostly Cloudy,50,2013-01-04 11:53:00
2:28 AM,71.6,62.6,73,30.10,10.0,ENE,21.9,-,N/A,,Mostly Cloudy,60,2013-01-04 12:28:00
2:53 AM,70.0,63.0,78,30.09,10.0,ENE,19.6,29.9,0.00,Rain,Light Rain,60,2013-01-04 12:53:00
3:05 AM,69.8,62.6,78,30.09,7.0,ENE,21.9,31.1,0.00,Rain,Light Rain,60,2013-01-04 13:05:00
3:16 AM,71.6,64.4,78,30.09,9.0,ENE,24.2,29.9,0.00,,Overcast,70,2013-01-04 13:16:00
3:53 AM,71.1,64.9,81,30.09,10.0,ENE,20.7,27.6,0.01,,Overcast,70,2013-01-04 13:53:00
4:53 AM,71.1,62.1,73,30.09,10.0,ENE,23.0,-,N/A,,Mostly Cloudy,60,2013-01-04 14:53:00
5:53 AM,71.1,63.0,75,30.10,10.0,ENE,20.7,-,N/A,,Mostly Cloudy,60,2013-01-04 15:53:00
6:53 AM,72.0,62.1,71,30.13,10.0,ENE,21.9,-,N/A,,Scattered Clouds,60,2013-01-04 16:53:00
7:19 AM,71.6,62.6,73,30.14,9.0,ENE,23.0,-,0.00,Rain,Light Rain,60,2013-01-04 17:19:00
7:36 AM,71.6,62.6,73,30.15,10.0,ENE,23.0,-,0.00,,Mostly Cloudy,60,2013-01-04 17:36:00
7:53 AM,72.0,62.1,71,30.15,10.0,NE,21.9,31.1,0.00,,Mostly Cloudy,50,2013-01-04 17:53:00
8:53 AM,73.0,62.1,68,30.17,10.0,NE,24.2,29.9,N/A,,Mostly Cloudy,50,2013-01-04 18:53:00
9:53 AM,73.0,63.0,71,30.19,10.0,ENE,24.2,-,N/A,,Scattered Clouds,60,2013-01-04 19:53:00
10:53 AM,75.0,63.0,66,30.17,10.0,ENE,20.7,28.8,N/A,,Partly Cloudy,60,2013-01-04 20:53:00
11:53 AM,75.9,63.0,64,30.14,10.0,ENE,21.9,-,N/A,,Scattered Clouds,60,2013-01-04 21:53:00
12:53 PM,75.9,62.1,62,30.12,10.0,ENE,20.7,27.6,N/A,,Scattered Clouds,60,2013-01-04 22:53:00
1:53 PM,75.9,62.1,62,30.09,10.0,ENE,20.7,-,N/A,,Scattered Clouds,60,2013-01-04 23:53:00
2:42 PM,75.2,62.6,65,30.08,10.0,ENE,19.6,-,N/A,,Mostly Cloudy,60,2013-01-05 00:42:00
2:49 PM,75.2,62.6,65,30.08,10.0,ENE,19.6,-,N/A,,Scattered Clouds,60,2013-01-05 00:49:00
2:53 PM,75.0,63.0,66,30.08,10.0,ENE,19.6,-,N/A,,Scattered Clouds,60,2013-01-05 00:53:00
3:06 PM,75.2,62.6,65,30.09,10.0,ENE,18.4,-,N/A,,Mostly Cloudy,60,2013-01-05 01:06:00
3:14 PM,75.2,62.6,65,30.09,10.0,ENE,20.7,-,N/A,,Mostly Cloudy,60,2013-01-05 01:14:00
3:23 PM,73.4,62.6,69,30.09,10.0,ENE,18.4,26.5,N/A,,Mostly Cloudy,60,2013-01-05 01:23:00
3:31 PM,75.2,62.6,65,30.09,10.0,ENE,21.9,-,N/A,,Mostly Cloudy,60,2013-01-05 01:31:00
3:53 PM,73.9,63.0,68,30.09,10.0,ENE,19.6,-,N/A,,Mostly Cloudy,60,2013-01-05 01:53:00
4:53 PM,73.9,63.0,68,30.10,10.0,ENE,19.6,26.5,N/A,,Overcast,60,2013-01-05 02:53:00
5:53 PM,73.0,64.9,76,30.12,10.0,NE,19.6,-,N/A,,Overcast,50,2013-01-05 03:53:00
6:53 PM,73.0,64.0,73,30.13,10.0,ENE,21.9,28.8,N/A,,Overcast,60,2013-01-05 04:53:00
7:53 PM,73.0,64.9,76,30.15,10.0,ENE,21.9,29.9,N/A,,Mostly Cloudy,60,2013-01-05 05:53:00
8:53 PM,73.0,64.0,73,30.16,10.0,ENE,19.6,27.6,N/A,,Overcast,60,2013-01-05 06:53:00
9:41 PM,73.4,64.4,73,30.18,10.0,ENE,26.5,33.4,N/A,,Overcast,70,2013-01-05 07:41:00
9:53 PM,73.0,64.0,73,30.17,10.0,ENE,19.6,27.6,0.00,,Mostly Cloudy,70,2013-01-05 07:53:00
10:45 PM,73.4,64.4,73,30.18,10.0,ENE,21.9,28.8,N/A,,Mostly Cloudy,60,2013-01-05 08:45:00
10:53 PM,73.0,64.0,73,30.17,10.0,ENE,21.9,28.8,N/A,,Overcast,60,2013-01-05 08:53:00
11:53 PM,72.0,64.9,78,30.17,10.0,NE,21.9,32.2,N/A,,Partly Cloudy,50,2013-01-05 09:53:00